Location: Newark
(48.1500°N, 2.9667°W)
Time: 11:06:42
(UTC+00:00)

Tiros 1 despin weight - All Passes

Search period start: 26 January 2020 00:00
Search period end: 05 February 2020 00:00
Orbit: 594 x 642 km, 48.2° (Epoch: 25 January)

Date Brightness Start Highest point End Pass type
(mag) Time Alt. Az. Time Alt. Az. Time Alt. Az.
26 Jan - 09:57:37 10° SSE 09:59:44 13° SE 10:01:52 10° ESE daylight
26 Jan - 11:36:10 10° SW 11:40:28 46° SSE 11:44:52 10° E daylight
26 Jan - 13:17:18 10° W 13:21:53 88° S 13:26:32 10° E daylight
26 Jan - 14:58:53 10° W 15:03:29 78° SSW 15:08:10 10° ESE daylight
26 Jan - 16:40:37 10° W 16:44:45 32° SSW 16:48:54 10° SSE daylight
27 Jan - 10:12:23 10° SSW 10:15:53 23° SE 10:19:26 10° E daylight
27 Jan - 11:52:26 10° WSW 11:56:55 65° SSE 12:01:29 10° E daylight
27 Jan - 13:33:53 10° W 13:38:28 88° N 13:43:08 10° E daylight
27 Jan - 15:15:28 10° W 15:20:00 60° SSW 15:24:36 10° ESE daylight
27 Jan - 16:57:36 10° W 17:01:00 20° SW 17:04:25 10° S daylight
28 Jan - 10:28:03 10° SW 10:32:09 36° SSE 10:36:20 10° E daylight
28 Jan - 12:08:54 10° WSW 12:13:26 82° SSE 12:18:03 10° E daylight
28 Jan - 13:50:28 10° W 13:55:03 86° SSW 13:59:43 10° E daylight
28 Jan - 15:32:05 10° W 15:36:25 41° SSW 15:40:47 10° SE daylight
28 Jan - 17:15:35 10° WSW 17:17:08 12° SW 17:18:41 10° SSW daylight
29 Jan - 09:04:50 10° S 09:07:40 17° SE 09:10:32 10° E daylight
29 Jan - 10:44:10 10° SW 10:48:32 53° SSE 10:52:59 10° E daylight
29 Jan - 12:25:28 10° W 12:30:00 89° NNW 12:34:39 10° E daylight
29 Jan - 14:07:02 10° W 14:11:35 71° SSW 14:16:13 10° ESE daylight
29 Jan - 15:48:53 10° W 15:52:45 27° SW 15:56:38 10° SSE daylight
30 Jan - 09:20:06 10° SSW 09:23:52 27° SE 09:27:43 10° E daylight
30 Jan - 11:00:32 10° WSW 11:05:00 73° SSE 11:09:35 10° E daylight
30 Jan - 12:42:03 10° W 12:46:36 90° NNW 12:51:14 10° E daylight
30 Jan - 14:23:37 10° W 14:28:04 51° SSW 14:32:34 10° SE daylight
30 Jan - 16:06:07 10° W 16:08:56 16° SW 16:11:48 10° S daylight
31 Jan - 07:57:56 10° SSE 07:59:30 12° SE 08:01:06 10° ESE daylight
31 Jan - 09:35:59 10° SW 09:40:12 42° SSE 09:44:29 10° E daylight
31 Jan - 11:17:03 10° W 11:21:33 87° S 11:26:09 10° E daylight
31 Jan - 12:58:37 10° W 13:03:10 80° S 13:07:47 10° ESE daylight
31 Jan - 14:40:18 10° W 14:44:27 34° SSW 14:48:38 10° SSE daylight
01 Feb - 08:12:20 10° S 08:15:39 21° SE 08:18:58 10° E daylight
01 Feb - 09:52:13 10° WSW 09:56:37 62° SSE 10:01:06 10° E daylight
01 Feb - 11:33:37 10° W 11:38:09 88° N 11:42:44 10° E daylight
01 Feb - 13:15:11 10° W 13:19:41 62° SSW 13:24:14 10° ESE daylight
01 Feb - 14:57:13 10° W 15:00:43 22° SW 15:04:14 10° SSE daylight
02 Feb - 08:27:54 10° SSW 08:31:53 33° SSE 08:35:56 10° E daylight
02 Feb - 10:08:39 10° WSW 10:13:07 80° S 10:17:40 10° E daylight
02 Feb - 11:50:11 10° W 11:54:43 87° S 11:59:20 10° E daylight
02 Feb - 13:31:48 10° W 13:36:07 43° SSW 13:40:29 10° SE daylight
02 Feb - 15:14:55 10° WSW 15:16:52 13° SW 15:18:49 10° SSW daylight
03 Feb - 07:04:55 10° S 07:07:27 15° SE 07:09:59 10° ESE visible
03 Feb - 08:43:57 10° SW 08:48:15 50° SSE 08:52:37 10° E daylight
03 Feb - 10:25:11 10° W 10:29:41 90° NNE 10:34:16 10° E daylight
03 Feb - 12:06:46 10° W 12:11:16 73° SSW 12:15:50 10° ESE daylight
03 Feb - 13:48:32 10° W 13:52:26 28° SW 13:56:23 10° SSE daylight
04 Feb - 07:19:59 10° SSW 07:23:37 25° SE 07:27:17 10° E daylight
04 Feb - 09:00:17 10° WSW 09:04:43 70° SSE 09:09:13 10° E daylight
04 Feb - 10:41:46 10° W 10:46:16 89° N 10:50:50 10° E daylight
04 Feb - 12:23:20 10° W 12:27:45 54° SSW 12:32:14 10° SE daylight
04 Feb - 14:05:40 10° W 14:08:40 17° SW 14:11:41 10° S daylight
